Location: Chuathbaluk
(61.5726°N, 159.2454°W)
Time: 12:04:30
(UTC+00:00)

N. Korean satellite - Pass Details

Date: 31 October 2020
Orbit: 453 x 503 km, 97.2° (Epoch: 04 December)

Event Time Altitude Azimuth Distance (km) Brightness Sun altitude
Rises 16:08:10 0° 18° (NNE) 2,492 10.4 -14.1°
Reaches altitude 10° 16:10:16 10° 24° (NNE) 1,610 9.5 -13.9°
Maximum altitude 16:13:37 47° 100° (E) 612 7.6 -13.5°
Drops below altitude 10° 16:16:56 10° 176° (S) 1,595 9.3 -13.1°
Sets 16:19:01 0° 183° (S) 2,466 10.2 -12.8°
